Home   Weather   Naumburg (Saale)   Past weeks

Flag for Germany Past Weather in Naumburg (Saale), Saxony-Anhalt, Germany — Yesterday and Last 2 Weeks

Now
37 °F

Clear.


Feels Like: 31 °F
Forecast: 42 / 59 °F
Wind: 9 mph from East

Location: Leipzig-Schkeuditz

Current Time: Apr 30, 2017 at 3:28:40 am

Latest Report: Apr 30, 2017 at 2:50 am


Visibility: 10 mi

Pressure: 30.09 "Hg

Humidity: 75%

Dew Point: 30 °F

Location of Naumburg (Saale)Location

Past Weather in Naumburg (Saale) — Graph

°F

Naumburg (Saale) Temperature Yesterday

Maximum temperature yesterday: 52 °F (at 4:50 pm)
Minimum temperature yesterday: 39 °F (at 4:50 am)
Average temperature yesterday: 45 °F

High & Low Weather Summary for the Past Weeks

 TemperatureHumidityPressure
High59 °F (Apr 24, 4:50 pm)100% (Apr 17, 5:20 am)30.60 "Hg (Apr 17, 5:20 am)
Low28 °F (Apr 20, 3:50 am)37% (Apr 25, 6:50 pm)29.59 "Hg (Apr 25, 5:50 am)
Average43 °F70%30.06 "Hg
* Reported Apr 15 2:20 am — Apr 30 2:20 am, Naumburg (Saale), Weather by CustomWeather, © 2017

Note: Actual official high and low records may vary slightly from our data, if they occured in-between our weather recording intervals... More about our weather records

Advertising

Naumburg (Saale) Weather History for the Previous 24 Hours

Scroll right to see more
 ConditionsComfort  
Time TempWeatherWind HumidityBarometerVisibility
2:20 am
Sun, Apr 30
37 °FClear.7 mph81%30.09 "Hg10 mi
1:50 am37 °FClear.8 mph81%30.09 "Hg10 mi
1:20 am37 °FClear.8 mph75%30.09 "Hg10 mi
12:50 am39 °FClear.9 mph70%30.09 "Hg10 mi
12:20 am39 °FClear.8 mph75%30.09 "Hg10 mi
11:50 pm
Sat, Apr 29
39 °FClear.7 mph70%30.09 "Hg10 mi
11:20 pm43 °FClear.6 mph57%30.09 "Hg10 mi
10:50 pm43 °FClear.5 mph61%30.09 "Hg10 mi
10:20 pm41 °FClear.3 mph66%30.09 "Hg10 mi
9:50 pm43 °FClear.2 mph61%30.09 "Hg10 mi
9:20 pm45 °FClear.1 mph53%30.07 "Hg10 mi
8:50 pm45 °FPassing clouds.3 mph61%30.07 "HgN/A
8:20 pm46 °FSunny.7 mph50%30.07 "Hg10 mi
7:50 pm50 °FPassing clouds.5 mph40%30.07 "HgN/A
7:20 pm50 °FSunny.6 mph43%30.07 "Hg10 mi
6:50 pm50 °FSunny.10 mph40%30.04 "Hg10 mi
6:20 pm50 °FSunny.9 mph43%30.04 "Hg10 mi
5:50 pm50 °FSunny.10 mph43%30.04 "Hg10 mi
5:20 pm52 °FPartly sunny.12 mph41%30.04 "HgN/A
4:50 pm52 °FPartly sunny.12 mph44%30.04 "HgN/A
4:20 pm50 °FPartly sunny.10 mph47%30.04 "HgN/A
3:50 pm50 °FBroken clouds.9 mph50%30.04 "HgN/A
3:20 pm50 °FBroken clouds.8 mph50%30.04 "HgN/A
2:50 pm50 °FPartly sunny.10 mph54%30.04 "HgN/A
2:20 pm50 °FBroken clouds.10 mph54%30.04 "HgN/A
1:50 pm50 °FBroken clouds.6 mph54%30.04 "HgN/A
12:50 pm46 °FSprinkles. Partly sunny.14 mph62%30.04 "HgN/A
12:20 pm48 °FPartly sunny.3 mph62%30.04 "HgN/A
11:50 am46 °FScattered showers. Partly sunny.6 mph71%30.04 "HgN/A
11:20 am43 °FSprinkles. Partly sunny.10 mph81%30.04 "HgN/A
10:50 am45 °FScattered showers. Partly sunny.7 mph66%30.04 "HgN/A
10:20 am45 °FScattered showers. Partly sunny.8 mph71%30.04 "HgN/A
9:50 am45 °FPartly sunny.7 mph76%30.04 "HgN/A
9:20 am45 °FPartly sunny.6 mph81%30.01 "HgN/A
8:50 am45 °FPartly sunny.8 mph87%30.01 "HgN/A
8:20 am45 °FPartly sunny.7 mph81%30.01 "HgN/A
7:50 am43 °FPartly sunny.7 mph87%30.01 "HgN/A
7:20 am43 °FPartly sunny.6 mph87%30.01 "HgN/A
6:50 am41 °FSprinkles. Partly sunny.8 mph93%30.01 "HgN/A
6:20 am41 °FLight rain. Partly sunny.6 mph87%29.98 "HgN/A
5:50 am41 °FLight rain. Partly sunny.7 mph87%29.98 "HgN/A
5:20 am41 °FPartly cloudy.7 mph81%29.98 "HgN/A
4:50 am39 °FPartly cloudy.7 mph87%29.98 "HgN/A
4:20 am41 °FPartly cloudy.5 mph81%29.98 "HgN/A
3:50 am41 °FClear.3 mph81%29.95 "Hg10 mi
3:20 am41 °FClear.5 mph81%29.95 "Hg10 mi
Weather by CustomWeather, © 2017

See weather overviewHow to use our weather pages